483  
ASUS44 KFWD 101503  
RWRFWD  
NORTH TEXAS HOURLY WEATHER ROUNDUP  
NATIONAL WEATHER SERVICE FORT WORTH TX  
900 AM CST FRI NOV 10 2017  
 
NOTE: "FAIR" INDICATES FEW OR NO CLOUDS BELOW 12,000 FEET WITH NO  
SIGNIFICANT WEATHER AND/OR S TO VISIBILITY
.  
 
TXZ118-119-101600-  
DALLAS/FORT WORTH METROPLEX  
 
CITY SKY/WX TMP DP RH WIND PRES REMARKS
 
DFW AIRPORT MOSUNNY 52 48 86 E3 30.29S FOG  
DALLAS LOVE MOSUNNY 52 46 80 NE6 30.31R  
FTW MEACHAM CLOUDY 50 47 89 E3 30.29S FOG  
DAL-EXECUTIVE SUNNY 50 46 86 NE3 30.30R  
FTW-ALLIANCE CLOUDY 47 46 97 CALM 30.30R  
FTW-NAS-JRB CLOUDY 49 45 86 E5 30.31R FOG  
FTW-SPINKS PTSUNNY 50 48 93 CALM 30.32R FOG  
ARLINGTON PTSUNNY 50 47 89 NE3 30.31R  
GRAND PRAIRIE MOSUNNY 52 45 76 CALM 30.32R  
ADDISON MOSUNNY 50 45 81 E5 30.31R  
MESQUITE SUNNY 46 46 100 CALM 30.32R HAZE  
LANCASTER SUNNY 49 46 87 NE3 30.32S  

 
 
TXZ091>094-102>105-117-120-121-131>134-101600-  
NORTH CENTRAL TEXAS  
 
CITY SKY/WX TMP DP RH WIND PRES REMARKS
 
SHRMAN/DENISON SUNNY 49 45 86 E6 30.32R  
GAINESVILLE FOG 45 44 97 CALM 30.32S VSB 1/2  
BOWIE CLOUDY 46 45 98 CALM 30.30R FOG  
BRIDGEPORT CLOUDY 47 47 100 SE3 30.31R FOG  
DENTON FOG 45 45 100 NE3 30.31R VSB 1/2  
MCKINNEY SUNNY 47 45 93 CALM 30.32R  
BONHAM SUNNY 45 44 95 CALM 30.33R  
ROCKWALL SUNNY 49 49 100 CALM 30.32R FOG  
TERRELL SUNNY 51 46 83 E3 30.32R  
WAXAHACHIE MOSUNNY 51 48 91 CALM 30.32S  
CLEBURNE CLOUDY 50 50 100 E5 30.31S FOG  
GRANBURY CLOUDY 51 48 90 SE3 30.31R  

 
 
TXZ083>090-098>101-113>116-127>130-139>142-154-155-101600-  
WESTERN NORTH TEXAS  
 
CITY SKY/WX TMP DP RH WIND PRES REMARKS
 
WICHITA FALLS CLOUDY 43 42 97 E5 30.29R FOG  
WF-KICKAPOO CLOUDY 45 44 96 CALM 30.31R  
VERNON CLOUDY 46 43 90 SE8 30.28R  
ABILENE CLOUDY 46 46 100 SE7 30.25R  
ABILENE-DYESS CLOUDY 47 47 100 SE7 30.24R  
GRAHAM N/A 47 32 56 CALM 30.28R  
BRECKENRIDGE CLOUDY 49 46 91 S5 30.27S  
CISCO CLOUDY 46 46 100 SE7 30.27R FOG  
EASTLAND CLOUDY 46 44 91 SE5 30.28R  
RANGER CLOUDY 47 45 91 SE3 30.28R  
MINERAL WELLS CLOUDY 47 46 97 S6 30.28R FOG  
STEPHENVILLE CLOUDY 49 44 81 CALM 30.30S  
COMANCHE CLOUDY 48 48 100 SE5 30.28S  
BROWNWOOD CLOUDY 48 46 93 E5 30.28R  
COLEMAN CLOUDY 47 46 97 E6 30.27R  

 
 
TXZ143>147-156>162-174-175-101600-  
CENTRAL TEXAS  
 
CITY SKY/WX TMP DP RH WIND PRES REMARKS
 
WACO CLOUDY 49 47 93 NE6 30.31R FOG  
WACO-TSTC CLOUDY 48 48 100 NE5 30.32 FOG  
WACO-MCGREGOR CLOUDY 50 49 96 NE6 30.31R  
HILLSBORO CLOUDY 51 49 92 NE5 30.30S  
CORSICANA SUNNY 50 47 89 N6 30.33R  
MEXIA CLOUDY 50 46 87 NE6 30.30S  
HEARNE CLOUDY 49 49 100 NE3 30.31S  
CAMERON CLOUDY 49 48 97 CALM 30.31R  
TEMPLE CLOUDY 52 48 86 NE6 30.30R  
KILLEEN CLOUDY 51 49 92 E5 30.28R  
KILLEEN-SKYLRK CLOUDY 52 49 89 NE5 30.30R  
FORT HOOD CLOUDY 50 48 92 NE5 30.25R  
GATESVILLE CLOUDY 50 50 100 CALM 30.31R FOG  
HAMILTON CLOUDY 49 49 100 SE5 30.29S FOG  
LAMPASAS CLOUDY 50 50 97 SE3 30.27R  

 
 
TXZ095>097-106>112-122>126-135>138-148>153-164>167-101600-  
EAST TEXAS  
 
CITY SKY/WX TMP DP RH WIND PRES REMARKS
 
PARIS SUNNY 50 45 83 E3 30.34R HAZE  
SULPHUR SPRNGS SUNNY 49 48 99 E3 30.35R  
MOUNT PLEASANT SUNNY 48 45 89 CALM 30.35R  
GILMER SUNNY 50 44 81 CALM 30.33R  
MINEOLA SUNNY 48 45 87 CALM 30.33R  
TYLER SUNNY 51 46 83 CALM 30.32R  
LONGVIEW NOT AVBL  
MARSHALL SUNNY 50 44 79 E3 30.35R  
ATHENS SUNNY 50 43 76 CALM 30.32R  
PALESTINE SUNNY 52 47 82 E3 30.33R  
JACKSONVILLE SUNNY 51 42 70 E6 30.32R  
HENDERSON SUNNY 53 44 72 E5 30.33R  
CENTER SUNNY 51 42 71 NE6 30.33R  
NACOGDOCHES SUNNY 54 44 69 VRB3 30.32R  
LUFKIN SUNNY 54 46 74 E8 30.30R  

 
 
SUPPLEMENTAL OBSERVATIONS (NWS FORT WORTH AREA)  
 
CITY SKY/WX TMP DP RH WIND PRES REMARKS
 

 
 
SUPPLEMENTAL OBSERVATIONS (NWS NORMAN AREA)  
 
CITY SKY/WX TMP DP RH WIND PRES REMARKS
 
GOODLETT N/A 37 37 97 SE6 30.26R WCI 33  
ODELL N/A 43 43 100 SE9 30.28R WCI 38  
CROWELL N/A 40 40 100 SE8 30.28R WCI 35  
KNOX CITY N/A 39 37 94 SE7 30.28R WCI 34  
SEYMOUR N/A 45 44 95 SE9 30.28R WCI 40  

 
 
SUPPLEMENTAL OBSERVATIONS (NWS SAN ANGELO AREA)  
 
CITY SKY/WX TMP DP RH WIND PRES REMARKS
 
WEINERT N/A 40 39 97 SE6 30.27S WCI 36  
HASKELL N/A 40 40 98 SE6 30.27R WCI 36  
THROCKMORTON N/A 45 45 99 SE6 30.29R  
STAMFORD N/A 42 42 100 SE7 30.27R WCI 38  
CLYDE N/A 45 45 100 SE9 30.26R  

 
 
SUPPLEMENTAL OBSERVATIONS (NWS SHREVEPORT AREA)  
 
CITY SKY/WX TMP DP RH WIND PRES REMARKS
 

 
 
SUPPLEMENTAL OBSERVATIONS ARE A COLLECTION OF AUTOMATED INSTRUMENTS  
THAT ARE MAINTAINED BY A VARIETY OF FEDERAL AND STATE AGENCIES.  
CERTAIN ELEMENTS...SUCH AS HUMIDITY VALUES AND SUSTAINED WIND  
SPEEDS...MAY BE APPROXIMATED.  
 
 
 
CLICK HERE TO GO TO PREVIOUS BULLETINS.

The Nexlab TX Page Main Text Page